CW3065 Weather Reports


time (UTC)temp
F
wind
direction
speed
knots
gust
knots
rain 1hr
in
rain 24hr
in
rain mn
in
humidity
%
barometer
mb
20260507202004 54 270 8.7 14.8 0.00 0.50 0.00 36 1010.4
20260507201505 52 269 4.3 12.2 0.00 0.51 0.00 39 1010.5
20260507201004 52 264 6.1 12.2 0.00 0.52 0.00 38 1010.6
20260507200504 53 258 6.1 14.8 0.00 0.53 0.00 38 1010.7
20260507200004 52 176 2.6 7.0 0.00 0.53 0.00 40 1010.6
20260507195504 52 247 6.1 17.4 0.00 0.54 0.00 39 1010.6
20260507195004 52 258 7.0 13.9 0.00 0.55 0.00 40 1010.6
20260507194504 52 290 2.6 6.1 0.00 0.55 0.00 41 1010.8
20260507193004 49 246 10.4 13.9 0.00 0.56 0.00 43 1011.3
20260507192504 49 242 4.3 10.4 0.00 0.56 0.00 44 1011.1
20260507192004 50 239 6.1 11.3 0.00 0.57 0.00 44 1011.0
20260507191504 49 257 7.8 13.0 0.00 0.57 0.00 44 1011.2
20260507191004 49 240 9.6 13.9 0.00 0.57 0.00 44 1011.0
20260507185504 49 215 7.8 13.0 0.00 0.59 0.00 44 1011.3
20260507185004 50 232 7.8 12.2 0.00 0.59 0.00 43 1011.4
20260507184504 49 241 8.7 13.9 0.00 0.60 0.00 43 1011.5
20260507183504 49 224 10.4 17.4 0.00 0.60 0.00 43 1011.5
20260507183004 49 239 12.2 17.4 0.00 0.61 0.00 44 1011.4
20260507182504 49 246 7.8 17.4 0.00 0.61 0.00 44 1011.4
20260507182004 48 244 11.3 20.9 0.00 0.62 0.00 44 1011.3
20260507181504 48 244 11.3 17.4 0.00 0.62 0.00 44 1011.2
20260507181004 48 240 14.8 20.0 0.00 0.62 0.00 44 1011.0
20260507174504 46 235 12.2 22.6 0.00 0.65 0.00 46 1011.6
20260507174004 47 238 13.9 21.7 0.00 0.66 0.00 45 1011.8
20260507173504 47 248 11.3 20.9 0.00 0.66 0.00 45 1012.0
20260507173004 47 244 13.0 20.0 0.00 0.67 0.00 45 1012.1
20260507172504 47 247 13.0 22.6 0.00 0.67 0.00 45 1012.1
20260507172004 47 249 13.0 19.1 0.00 0.67 0.00 45 1012.1
20260507171504 47 243 6.1 17.4 0.00 0.67 0.00 48 1012.2
20260507171003 45 259 11.3 17.4 0.00 0.67 0.00 49 1012.4
20260507170504 44 242 7.8 17.4 0.00 0.67 0.00 50 1012.6
20260507170005 45 248 10.4 15.6 0.00 0.67 0.00 49 1012.7
20260507165004 45 249 5.2 12.2 0.00 0.67 0.00 49 1013.1
20260507164504 44 252 5.2 10.4 0.00 0.67 0.00 49 1012.9
20260507163504 44 238 8.7 15.6 0.00 0.67 0.00 49 1012.7
20260507163004 45 228 12.2 20.0 0.00 0.67 0.00 47 1012.8
20260507162504 45 236 10.4 17.4 0.00 0.67 0.00 47 1013.0
20260507162004 45 237 10.4 20.0 0.00 0.67 0.00 47 1012.8
20260507161504 44 251 10.4 17.4 0.00 0.67 0.00 48 1013.0
20260507161004 44 246 11.3 15.6 0.00 0.67 0.00 48 1012.9
20260507160504 43 234 10.4 17.4 0.00 0.67 0.00 48 1012.7
20260507160005 43 221 7.8 13.9 0.00 0.67 0.00 50 1012.7
20260507155004 42 217 8.7 17.4 0.00 0.67 0.00 50 1013.0
20260507154504 42 225 5.2 11.3 0.00 0.67 0.00 49 1013.1
20260507154004 41 155 1.7 5.2 0.00 0.67 0.00 51 1013.3
20260507153504 41 207 4.3 14.8 0.00 0.67 0.00 52 1013.4
20260507153004 40 188 8.7 17.4 0.00 0.67 0.00 51 1013.4
20260507152504 40 197 11.3 20.0 0.00 0.67 0.00 50 1013.4
20260507152004 40 201 7.8 14.8 0.00 0.67 0.00 51 1013.5
20260507151504 40 222 9.6 21.7 0.00 0.67 0.00 51 1013.7
20260507151004 40 203 7.8 17.4 0.00 0.67 0.00 50 1013.9
20260507150504 40 192 7.0 13.0 0.00 0.67 0.00 50 1014.2
20260507150005 40 190 8.7 13.9 0.00 0.67 0.00 50 1014.4
20260507145504 39 211 5.2 11.3 0.00 0.67 0.00 51 1014.7
20260507145004 39 227 6.1 11.3 0.00 0.67 0.00 51 1014.9
20260507144004 39 246 10.4 20.0 0.00 0.67 0.00 50 1015.3
20260507143004 39 244 10.4 18.2 0.00 0.67 0.00 51 1015.0
20260507142504 39 238 8.7 17.4 0.00 0.67 0.00 51 1015.1
20260507141504 40 245 8.7 15.6 0.00 0.67 0.00 50 1014.9
20260507141004 40 246 10.4 14.8 0.00 0.67 0.00 50 1014.9
20260507140504 41 262 6.1 13.0 0.00 0.67 0.00 49 1015.0
20260507140004 40 263 1.7 10.4 0.00 0.67 0.00 51 1015.1
20260507135505 40 270 7.8 13.0 0.00 0.67 0.00 52 1015.0
20260507135005 40 136 2.6 17.4 0.00 0.67 0.00 52 1015.2
20260507134504 40 231 2.6 10.4 0.00 0.67 0.00 53 1015.3
20260507134003 39 203 7.0 18.2 0.00 0.67 0.00 52 1015.3
20260507133504 39 223 5.2 10.4 0.00 0.67 0.00 52 1015.3
20260507132504 38 208 6.1 14.8 0.00 0.67 0.00 53 1015.2
20260507132004 38 198 7.8 11.3 0.00 0.67 0.00 53 1015.2
20260507131503 38 191 7.0 12.2 0.00 0.67 0.00 52 1015.2
20260507131004 38 204 7.8 11.3 0.00 0.67 0.00 52 1015.2
20260507130504 38 236 7.8 13.9 0.00 0.67 0.00 52 1015.2
20260507125004 37 228 7.8 13.0 0.00 0.67 0.00 53 1015.2
20260507124504 37 235 7.8 12.2 0.00 0.67 0.00 53 1015.2
20260507124004 37 240 7.8 12.2 0.00 0.67 0.00 52 1015.1
20260507123004 37 236 9.6 13.0 0.00 0.67 0.00 53 1015.2
20260507122504 37 236 8.7 12.2 0.00 0.67 0.00 52 1015.3
20260507122005 37 238 7.8 12.2 0.00 0.67 0.00 53 1015.4
20260507121504 36 245 8.7 13.0 0.00 0.67 0.00 53 1015.4
20260507120504 36 244 7.8 14.8 0.00 0.67 0.00 53 1015.2
20260507115504 37 251 11.3 18.2 0.00 0.67 0.00 53 1015.2
20260507115004 36 248 10.4 15.6 0.00 0.67 0.00 53 1015.4
20260507114504 36 247 5.2 12.2 0.00 0.67 0.00 54 1015.6
20260507114004 36 255 4.3 8.7 0.00 0.67 0.00 54 1015.6
20260507113504 36 249 5.2 10.4 0.00 0.67 0.00 54 1015.6
20260507113004 36 249 7.0 11.3 0.00 0.67 0.00 53 1015.4
20260507112504 36 243 5.2 10.4 0.00 0.67 0.00 53 1015.3
20260507112004 36 268 7.8 13.0 0.00 0.67 0.00 53 1015.3
20260507111506 37 251 6.1 12.2 0.00 0.67 0.00 53 1015.5
20260507111003 37 262 7.8 15.6 0.00 0.67 0.00 52 1015.4
20260507110504 37 243 6.1 13.0 0.00 0.67 0.00 52 1015.6
20260507110004 37 260 5.2 13.9 0.00 0.67 0.00 52 1015.6
20260507105504 37 253 8.7 15.6 0.00 0.67 0.00 51 1015.6
20260507105004 36 255 7.8 17.4 0.00 0.67 0.00 51 1016.0
20260507104004 36 250 11.3 18.2 0.00 0.67 0.00 51 1016.0
20260507103504 36 245 10.4 18.2 0.00 0.67 0.00 51 1015.9
20260507103004 36 244 8.7 17.4 0.00 0.67 0.00 51 1015.9
20260507102504 36 255 8.7 18.2 0.00 0.67 0.00 52 1016.0
20260507102006 36 263 7.8 15.6 0.00 0.67 0.00 52 1016.0
20260507101504 36 255 10.4 17.4 0.00 0.67 0.00 51 1016.0
20260507101004 36 248 7.8 19.1 0.00 0.67 0.00 51 1015.9
20260507100504 36 253 13.0 20.9 0.00 0.67 0.00 51 1015.9
20260507100004 36 247 11.3 17.4 0.00 0.67 0.00 51 1015.9
20260507095504 36 247 11.3 20.0 0.00 0.67 0.00 51 1015.9
20260507094004 36 248 13.9 20.9 0.00 0.67 0.00 51 1015.7
20260507093504 36 250 15.6 25.2 0.00 0.67 0.00 51 1015.5
20260507093003 37 245 15.6 20.9 0.00 0.67 0.00 51 1015.6
20260507092504 37 249 13.9 24.3 0.00 0.67 0.00 51 1015.8
20260507092004 37 257 14.8 22.6 0.00 0.67 0.00 51 1015.8
20260507091503 37 246 13.0 19.1 0.00 0.67 0.00 51 1015.8
20260507091004 37 250 13.9 20.9 0.00 0.67 0.00 51 1015.7
20260507090504 37 254 12.2 20.0 0.00 0.67 0.00 52 1015.8
20260507085504 37 252 10.4 19.1 0.00 0.67 0.00 52 1015.8
20260507085004 36 250 13.0 20.0 0.00 0.67 0.00 52 1015.5
20260507084504 36 248 11.3 18.2 0.00 0.67 0.00 52 1015.5
20260507084004 36 248 11.3 17.4 0.00 0.67 0.00 52 1015.4
20260507083005 37 245 12.2 20.0 0.00 0.67 0.00 50 1015.3
20260507082004 37 245 11.3 19.1 0.00 0.67 0.00 51 1015.3
20260507081504 36 256 11.3 19.1 0.00 0.67 0.00 50 1015.3
20260507081004 37 248 13.0 20.9 0.00 0.67 0.00 50 1015.6
20260507080504 36 252 13.0 20.9 0.00 0.67 0.00 50 1015.5
20260507075504 36 246 11.3 17.4 0.00 0.67 0.00 50 1016.0
20260507074504 36 241 6.1 13.0 0.00 0.67 0.00 50 1016.5
20260507074004 36 258 4.3 8.7 0.00 0.67 0.00 50 1016.5
20260507073504 35 251 5.2 10.4 0.00 0.67 0.00 50 1016.5
20260507073004 35 246 5.2 10.4 0.00 0.67 0.00 50 1016.6
20260507072504 34 280 6.1 12.2 0.00 0.67 0.00 51 1016.6
20260507071504 35 290 5.2 10.4 0.00 0.67 0.00 51 1016.7
20260507071003 35 263 5.2 12.2 0.00 0.67 0.00 51 1016.8
20260507070504 35 276 6.1 13.0 0.00 0.67 0.00 50 1016.9
20260507070009 35 266 4.3 10.4 0.00 0.67 0.00 50 1017.0
20260507065504 35 263 4.3 12.2 0.00 0.67 0.00 51 1016.7
20260507065004 35 252 10.4 17.4 0.00 0.67 0.00 50 1016.6
20260507064504 35 256 8.7 20.0 0.00 0.67 0.00 51 1016.6
20260507064004 35 254 7.8 13.9 0.00 0.67 0.00 51 1016.7
20260507063504 35 265 10.4 20.0 0.00 0.67 0.00 50 1016.9
20260507063004 35 265 6.1 13.0 0.00 0.67 0.00 50 1017.1
20260507062504 35 253 8.7 12.2 0.00 0.67 0.00 50 1017.2
20260507062004 35 254 7.8 13.0 0.00 0.67 0.00 49 1017.2
20260507061504 35 250 11.3 18.2 0.00 0.67 0.00 49 1017.2
20260507060504 35 269 11.3 17.4 0.00 0.67 0.00 49 1017.2
20260507060004 35 260 8.7 20.9 0.00 0.67 0.00 49 1017.3
20260507054504 35 247 7.8 13.9 0.00 0.67 0.67 48 1017.7
20260507054004 35 256 11.3 18.2 0.00 0.67 0.67 48 1017.7
20260507053504 35 251 12.2 17.4 0.00 0.67 0.67 48 1017.7
20260507052504 35 257 7.8 17.4 0.00 0.67 0.67 48 1017.6
20260507052004 34 251 10.4 17.4 0.00 0.67 0.67 49 1017.4
20260507051504 34 266 8.7 17.4 0.00 0.67 0.67 50 1017.4
20260507050504 34 260 5.2 12.2 0.00 0.67 0.67 50 1017.4
20260507045004 34 278 7.8 15.6 0.00 0.67 0.67 51 1017.7
20260507044504 34 266 6.1 15.6 0.00 0.67 0.67 50 1017.6
20260507044004 35 273 8.7 17.4 0.00 0.67 0.67 50 1017.6
20260507043504 35 263 10.4 18.2 0.00 0.67 0.67 50 1017.4
20260507043004 34 258 7.8 13.9 0.00 0.67 0.67 50 1017.5
20260507042504 35 262 8.7 14.8 0.00 0.67 0.67 50 1017.3
20260507042004 35 275 11.3 18.2 0.00 0.67 0.67 50 1017.3
20260507041504 34 275 10.4 21.7 0.00 0.67 0.67 51 1017.3
20260507041004 35 265 17.4 21.7 0.00 0.67 0.67 51 1017.2
20260507040504 35 263 10.4 19.1 0.00 0.67 0.67 50 1017.1
20260507040004 35 261 11.3 20.0 0.00 0.67 0.67 50 1017.2
20260507035504 35 257 10.4 20.0 0.00 0.67 0.67 50 1017.2
20260507035003 35 269 11.3 20.9 0.00 0.67 0.67 50 1017.6
20260507034503 35 265 10.4 22.6 0.00 0.67 0.67 49 1017.6
20260507034004 35 268 10.4 24.3 0.00 0.67 0.67 50 1017.6
20260507033504 35 265 12.2 20.0 0.00 0.67 0.67 49 1017.6
20260507033004 35 255 14.8 22.6 0.00 0.67 0.67 50 1017.5
20260507032504 35 257 11.3 19.1 0.00 0.67 0.67 51 1017.1
20260507032004 35 254 13.0 20.9 0.00 0.67 0.67 50 1017.1
20260507031504 35 255 13.9 20.0 0.00 0.67 0.67 50 1016.9
20260507031004 35 255 13.9 20.0 0.00 0.67 0.67 51 1016.9
20260507030504 35 256 13.0 21.7 0.00 0.67 0.67 51 1016.9
20260507030004 35 246 10.4 17.4 0.00 0.67 0.67 51 1016.9
20260507025004 35 261 8.7 20.9 0.00 0.67 0.67 52 1016.7
20260507024504 35 259 7.8 15.6 0.00 0.67 0.67 53 1016.8
20260507023004 35 262 7.0 15.6 0.00 0.67 0.67 53 1016.5
20260507022504 35 260 6.1 19.1 0.00 0.67 0.67 53 1016.7
20260507022004 35 262 8.7 19.1 0.00 0.67 0.67 53 1016.5
20260507021503 35 248 7.8 14.8 0.00 0.67 0.67 53 1016.5
20260507020004 35 243 7.8 14.8 0.00 0.67 0.67 52 1016.3
20260507015504 35 248 8.7 14.8 0.00 0.67 0.67 52 1016.2
20260507015004 36 244 8.7 14.8 0.00 0.67 0.67 52 1016.2
20260507014504 36 234 6.1 11.3 0.00 0.67 0.67 52 1016.3
20260507014004 36 245 6.1 13.9 0.00 0.67 0.67 53 1016.2
20260507013504 36 242 5.2 11.3 0.01 0.67 0.67 52 1016.2
20260507013005 37 242 5.2 8.7 0.01 0.67 0.67 51 1016.2
20260507012503 37 246 4.3 10.4 0.01 0.67 0.67 50 1016.2
20260507011504 38 254 6.1 11.3 0.01 0.67 0.67 48 1016.1
20260507010504 38 254 6.1 15.6 0.01 0.67 0.67 49 1016.1
20260507005504 39 239 3.5 12.2 0.01 0.67 0.67 48 1016.4
20260507005004 39 241 5.2 11.3 0.01 0.67 0.67 48 1016.7
20260507004504 39 264 4.3 15.6 0.02 0.67 0.67 48 1016.7
20260507003504 40 247 4.3 8.7 0.01 0.66 0.66 45 1016.7
20260507003005 41 251 5.2 10.4 0.01 0.66 0.66 45 1016.7
20260507002504 41 307 2.6 7.8 0.01 0.66 0.66 46 1016.7
20260507002004 41 323 2.6 5.2 0.02 0.66 0.66 44 1016.7
20260507001503 41 226 0.9 2.6 0.02 0.66 0.66 45 1016.7
20260507000504 40 226 1.7 4.3 0.02 0.66 0.66 43 1016.8
20260507000004 41 226 4.3 7.8 0.03 0.66 0.66 44 1016.8
20260506235504 41 205 3.5 6.1 0.03 0.66 0.66 43 1016.8
20260506235004 40 292 1.7 2.6 0.03 0.66 0.66 45 1016.8
20260506234504 40 223 4.3 7.8 0.03 0.65 0.65 46 1016.9
20260506234004 39 250 8.7 12.2 0.04 0.65 0.65 45 1016.9
20260506233504 39 234 3.5 11.3 0.04 0.65 0.65 48 1016.7
20260506233004 39 226 6.1 17.4 0.05 0.66 0.65 47 1016.7
20260506232504 40 245 5.2 10.4 0.06 0.66 0.65 50 1016.7
20260506232003 39 251 7.8 13.0 0.06 0.65 0.64 49 1016.8
20260506231504 39 251 8.7 14.8 0.07 0.65 0.64 48 1016.7
20260506231004 39 268 5.2 12.2 0.08 0.65 0.64 51 1016.7
20260506230504 39 259 8.7 15.6 0.09 0.65 0.64 49 1016.7
20260506230004 39 268 7.0 11.3 0.10 0.64 0.63 49 1016.6
20260506225504 39 245 6.1 17.4 0.11 0.64 0.63 49 1016.8
20260506224504 38 291 1.7 5.2 0.13 0.63 0.62 69 1016.9
20260506224004 37 115 1.7 4.3 0.14 0.62 0.61 71 1016.9
20260506223504 37 78 1.7 2.6 0.16 0.62 0.61 68 1016.9
20260506223004 37 65 0.9 2.6 0.17 0.61 0.60 70 1017.0
20260506222004 37 48 1.7 4.3 0.19 0.59 0.58 70 1016.9
20260506221004 37 75 1.7 2.6 0.20 0.57 0.56 69 1017.2
20260506220504 37 85 0.9 1.7 0.21 0.56 0.55 69 1017.1
20260506220005 37 85 0.0 1.7 0.21 0.54 0.53 69 1017.2
20260506215503 37 85 0.0 0.9 0.23 0.53 0.52 66 1017.2
20260506215005 38 51 0.9 2.6 0.23 0.51 0.50 70 1017.3
20260506214504 37 66 1.7 2.6 0.24 0.51 0.49 68 1017.5
20260506214004 37 57 0.9 2.6 0.25 0.49 0.47 69 1017.6
20260506213504 37 58 2.6 4.3 0.24 0.47 0.45 71 1017.7
20260506211504 35 115 0.0 1.7 0.22 0.40 0.38 70 1017.8
20260506211004 35 111 0.9 1.7 0.21 0.38 0.36 72 1017.8
20260506210504 35 121 0.0 0.9 0.20 0.36 0.34 72 1017.8
20260506205504 35 85 1.7 2.6 0.16 0.32 0.29 71 1018.1
20260506205004 35 88 0.9 2.6 0.15 0.30 0.27 71 1018.4
20260506204504 35 88 1.7 4.3 0.13 0.28 0.25 70 1018.2
20260506204003 35 57 1.7 2.6 0.10 0.25 0.22 72 1018.6
20260506203004 33 77 1.7 2.6 0.08 0.22 0.19 78 1018.9